Terminal Aerodrome Forecast
Issued by NWS

Home | Current Version | Previous Version | Text Only | Print | Product List | Glossary On
Versions: 1 2 3 4 5 6 7 8 9 10 11 12 13
000
FTUS42 KTAE 011124
TAFDHN
TAF
KDHN 011124Z 0112/0212 06003KT P6SM FEW003 SCT040 BKN250
     FM012000 07008KT 3SM TSRA BKN030CB
     FM020000 06004KT P6SM VCSH SCT030 BKN100=

USA.gov is the U.S. government's official web portal to all federal, state and local government web resources and services.